Weather observations for the past three days for
Clinton, Clinton-Sherman Airport
Metric (Imperial)
Date Time (cdt) Wind (kph) Vis. (km) Weather Sky Cond. Temperature (ºC) Relative Humidity Wind Chill (°C) Heat Index (°C) Pressure Precipitation (cm)
Air Dwpt 6 hour altimeter (cm) sea level (mb) 1 hr 3 hr 6 hr
Max. Min.
15 18:53 S 35 G 48 16.09 Fair and Breezy CLR 37.8 15.6 40 37.2 27% 38 75.82 1007.7
15 17:53 S 33 G 46 16.09 Fair and Breezy CLR 38.3 16.7 28% 39 75.84 1008.0
15 16:53 S 30 G 46 16.09 Fair CLR 38.3 16.7 28% 39 75.87 1008.2
15 15:53 S 26 G 46 16.09 Fair CLR 39.4 15 24% 40 75.92 1008.9
15 14:53 S 31 G 48 16.09 Fair CLR 39.4 15 24% 40 75.97 1009.6
15 13:53 S 33 G 50 16.09 Fair and Breezy CLR 38.3 17.2 29% 40 76 1009.9
15 12:53 SW 31 G 54 16.09 Fair CLR 37.2 18.3 37.2 23.3 33% 39 76.05 1010.6
15 11:53 S 30 16.09 Fair CLR 35.6 18.9 37% 38 76.07 1011.2
15 10:53 SW 24 G 37 16.09 Fair CLR 33.3 18.3 41% 34 76.12 1011.8
15 09:53 S 28 G 41 16.09 Fair CLR 31.1 17.8 45% 32 76.15 1012.2
15 08:53 S 19 16.09 Fair CLR 27.8 17.8 55% 29 76.17 1012.6
15 07:53 S 19 16.09 Fair CLR 25 17.2 62% 26 76.15 1012.1
15 06:53 S 15 16.09 Fair CLR 23.3 16.7 28.3 23.3 67% 76.15 1012.1
15 05:53 S 15 16.09 Fair CLR 23.9 16.7 64% 25 76.1 1011.5
15 04:53 S 17 16.09 Fair CLR 24.4 16.7 62% 25 76.1 1011.3
15 03:53 S 20 16.09 Fair CLR 25.6 16.7 58% 26 76.1 1011.4
15 02:53 S 20 16.09 Fair CLR 27.2 17.2 54% 28 76.15 1011.9
15 01:53 S 20 16.09 Fair CLR 27.2 17.8 57% 28 76.2 1012.7
15 00:53 S 22 16.09 Fair CLR 28.3 17.8 36.7 28.3 53% 29 76.23 1013.3
14 23:53 S 26 16.09 Fair CLR 28.9 17.8 51% 30 76.2 1012.8
14 22:53 S 26 16.09 Fair CLR 30.6 17.2 45% 31 76.17 1012.5
14 21:53 S 22 16.09 Fair CLR 31.1 15.6 39% 31 76.15 1012.3
14 20:53 S 22 16.09 Fair CLR 32.8 15.6 35% 33 76.15 1012.1
14 19:53 S 28 G 37 16.09 Fair CLR 35 14.4 29% 34 76.12 1011.9
14 18:53 S 31 G 41 16.09 Fair CLR 36.7 14.4 38.3 35 26% 36 76.12 1012.0
14 17:53 S 28 G 46 16.09 Fair CLR 37.8 15 26% 38 76.15 1012.1
14 16:53 SW 26 G 44 16.09 Fair CLR 38.3 15.6 26% 39 76.17 1012.5
14 15:53 S 26 16.09 Fair CLR 38.3 16.7 28% 39 76.23 1013.1
14 14:53 S 37 G 50 16.09 Fair and Breezy CLR 37.2 17.2 31% 38 76.25 1013.4
14 13:53 SW 30 G 48 16.09 Fair CLR 36.7 17.2 32% 38 76.28 1014.0
14 12:53 S 31 G 44 16.09 Fair CLR 35 18.3 35.6 23.3 37% 36 76.35 1014.7
14 11:53 SW 30 G 48 16.09 Fair CLR 33.9 18.9 41% 36 76.38 1015.1
14 10:53 SW 35 G 48 16.09 Fair and Breezy CLR 31.7 18.9 47% 33 76.38 1015.3
14 09:53 SW 31 G 46 16.09 Fair CLR 30 18.9 51% 31 76.43 1016.0
14 08:53 S 31 16.09 Fair CLR 27.8 18.3 56% 29 76.45 1016.4
14 07:53 S 26 16.09 Fair CLR 24.4 18.9 72% 25 76.43 1016.0
14 06:53 S 26 16.09 Fair CLR 23.3 18.9 26.7 23.3 76% 76.38 1015.6
14 05:53 S 24 16.09 Fair CLR 23.9 18.9 74% 25 76.35 1015.2
14 04:53 S 22 16.09 Fair CLR 24.4 18.9 72% 25 76.33 1014.5
14 03:53 S 20 16.09 Fair CLR 24.4 18.9 72% 25 76.35 1014.8
14 02:53 S 24 16.09 Fair CLR 25.6 18.9 67% 27 76.38 1015.3
14 01:53 S 20 16.09 Fair CLR 26.1 18.9 65% 27 76.4 1015.7
14 00:53 S 22 16.09 Fair CLR 26.7 18.9 35 26.7 62% 28 76.45 1016.2
13 23:53 SE 22 16.09 Fair CLR 27.8 18.3 56% 29 76.45 1016.2
13 22:53 SE 22 16.09 Fair CLR 28.9 17.2 49% 29 76.45 1016.4
13 21:53 SE 22 16.09 Fair CLR 30 16.7 45% 30 76.4 1015.9
13 20:53 SE 24 16.09 Fair CLR 31.7 17.2 42% 32 76.38 1015.6
13 19:53 S 28 16.09 Fair CLR 33.9 15.6 33% 34 76.38 1015.3
13 18:53 S 31 G 46 16.09 Fair CLR 34.4 15 36.1 33.9 31% 34 76.38 1015.5
13 17:53 SE 30 G 41 16.09 Fair CLR 35 15.6 31% 35 76.38 1015.4
13 16:53 S 26 G 48 16.09 Fair CLR 35.6 16.1 31% 36 76.38 1015.4
13 15:53 S 24 G 43 16.09 Fair CLR 35.6 16.1 31% 36 76.43 1016.2
13 14:53 S 26 G 43 16.09 Fair CLR 35.6 16.1 31% 36 76.45 1016.5
13 13:53 S 30 G 44 16.09 Fair CLR 34.4 16.7 35% 35 76.53 1017.3
13 12:53 S 20 16.09 Fair CLR 33.9 18.3 33.9 23.3 40% 35 76.56 1017.6
13 11:53 S 22 16.09 Fair CLR 32.2 18.9 45% 34 76.53 1017.5
13 10:53 S 26 16.09 Fair CLR 30.6 19.4 51% 32 76.56 1017.6
13 09:53 S 28 16.09 Fair CLR 28.9 19.4 57% 30 76.56 1017.8
13 08:53 S 28 16.09 Fair CLR 26.1 19.4 67% 27 76.56 1017.9
13 07:53 S 20 16.09 Fair CLR 24.4 18.9 72% 25 76.53 1017.4
13 06:53 S 20 16.09 Fair CLR 23.3 18.3 26.7 22.8 74% 76.48 1016.8
13 05:53 S 20 16.09 Fair CLR 22.8 17.8 74% 76.45 1016.2
13 04:53 S 22 16.09 Fair CLR 23.3 17.8 71% 76.4 1015.7
13 02:53 S 24 16.09 Fair CLR 25 16.7 60% 26 76.38 1015.3
13 01:53 S 20 16.09 Fair CLR 25.6 17.2 60% 27 76.4 1015.4
13 00:53 S 24 16.09 Fair CLR 26.7 17.2 34.4 26.7 56% 27 76.4 1015.7
12 23:53 S 26 16.09 Fair CLR 27.8 17.2 53% 28 76.4 1015.5
12 22:53 S 31 16.09 Fair CLR 28.9 17.2 49% 29 76.38 1015.2
12 21:53 S 31 16.09 Fair CLR 30 16.7 45% 30 76.3 1014.4
12 20:53 S 30 16.09 Fair CLR 31.7 16.1 39% 32 76.28 1014.1
12 19:53 S 28 16.09 Fair CLR 33.3 15 33% 33 76.25 1013.7
Date Time (cdt) Wind (kph) Vis. (km) Weather Sky Cond. Air Dwpt Max. Min. Relative Humidity Wind Chill (°C) Heat Index (°C) altimeter (cm) sea level (mb) 1 hr 3 hr 6 hr
6 hour
Temperature (ºC) Pressure Precipitation (cm)